EW8288 Weather Reports


time (UTC)temp
F
wind
direction
speed
knots
gust
knots
rain 1hr
in
rain 24hr
in
rain mn
in
humidity
%
barometer
mb
20260905211439 66 259 0.9 3.5 0.00 0.06 0.06 68 1021.3
20260905210227 66 259 0.0 2.6 0.00 0.06 0.06 68 1021.3
20260905205225 66 259 0.9 2.6 0.00 0.06 0.06 67 1021.0
20260905204226 66 259 2.6 3.5 0.00 0.06 0.06 67 1021.0
20260905203227 66 259 0.0 2.6 0.00 0.06 0.06 66 1020.7
20260905202228 66 259 0.9 1.7 0.00 0.06 0.06 64 1020.7
20260905201225 66 259 0.9 1.7 0.00 0.06 0.06 64 1020.7
20260905200439 67 259 0.9 1.7 0.00 0.06 0.06 63 1020.7
20260905195225 67 259 0.0 2.6 0.00 0.06 0.06 61 1020.7
20260905194439 67 259 0.0 1.7 0.00 0.06 0.06 59 1020.7
20260905193226 67 259 0.0 1.7 0.00 0.06 0.06 57 1020.3
20260905192441 68 259 0.0 0.9 0.00 0.06 0.06 55 1020.3
20260905191227 69 259 0.9 2.6 0.00 0.06 0.06 54 1020.3
20260905190225 69 259 0.0 1.7 0.00 0.06 0.06 53 1020.3
20260905185227 69 259 1.7 1.7 0.00 0.06 0.06 53 1020.0
20260905184227 70 259 0.0 1.7 0.00 0.06 0.06 52 1020.0
20260905183439 70 259 0.0 1.7 0.00 0.06 0.06 51 1019.6
20260905182225 70 259 0.0 1.7 0.00 0.06 0.06 51 1019.6
20260905181226 71 259 0.0 2.6 0.00 0.06 0.06 49 1019.6
20260905180225 71 261 0.0 2.6 0.00 0.06 0.06 49 1019.3
20260905175227 71 261 0.0 1.7 0.00 0.06 0.06 48 1019.0
20260905174226 72 261 0.0 6.1 0.00 0.06 0.06 47 1019.0
20260905173441 72 258 0.0 2.6 0.00 0.06 0.06 46 1019.0
20260905172225 73 257 0.9 7.0 0.00 0.06 0.06 46 1019.0
20260905171227 73 296 4.3 6.1 0.00 0.06 0.06 45 1019.0
20260905170227 74 256 0.9 7.8 0.00 0.06 0.06 45 1019.0
20260905165227 74 255 6.1 7.8 0.00 0.06 0.06 44 1018.6
20260905164225 75 313 0.9 5.2 0.00 0.06 0.06 42 1018.6
20260905163225 76 15 2.6 8.7 0.00 0.06 0.06 42 1018.6
20260905162225 76 9 2.6 10.4 0.00 0.06 0.06 41 1018.3
20260905161224 76 236 4.3 11.3 0.00 0.06 0.06 41 1018.3
20260905160227 77 13 0.9 7.0 0.00 0.06 0.06 42 1018.3
20260905155227 77 236 2.6 10.4 0.00 0.06 0.06 41 1018.3
20260905154225 77 213 1.7 9.6 0.00 0.06 0.06 42 1018.3
20260905153226 77 38 1.7 13.0 0.00 0.06 0.06 41 1018.3
20260905152439 77 9 1.7 9.6 0.00 0.06 0.06 41 1017.9
20260905151443 77 232 3.5 10.4 0.00 0.06 0.06 41 1018.3
20260905150227 77 355 7.0 9.6 0.00 0.06 0.06 41 1017.9
20260905145227 77 252 2.6 13.0 0.00 0.06 0.06 41 1018.3
20260905144439 77 15 0.9 11.3 0.00 0.06 0.06 41 1017.9
20260905143439 77 15 0.9 11.3 0.00 0.06 0.06 41 1017.9
20260905142438 77 275 1.7 7.8 0.00 0.06 0.06 42 1017.9
20260905141226 77 5 5.2 8.7 0.00 0.06 0.06 42 1017.9
20260905140224 77 195 2.6 12.2 0.00 0.06 0.06 41 1017.9
20260905135227 77 232 2.6 8.7 0.00 0.06 0.06 41 1018.3
20260905134441 77 241 3.5 9.6 0.00 0.06 0.06 42 1018.3
20260905133225 76 212 0.9 12.2 0.00 0.06 0.06 45 1018.3
20260905132441 76 11 7.8 12.2 0.00 0.06 0.06 44 1018.6
20260905131226 76 360 7.0 9.6 0.00 0.06 0.06 44 1018.3
20260905130228 77 233 3.5 9.6 0.00 0.06 0.06 46 1018.3
20260905125227 77 355 1.7 10.4 0.01 0.06 0.06 45 1018.3
20260905124440 78 51 3.5 11.3 0.01 0.06 0.06 44 1018.3
20260905123226 77 250 2.6 8.7 0.01 0.06 0.06 46 1018.3
20260905122227 77 239 3.5 9.6 0.01 0.06 0.06 46 1018.3
20260905121442 76 240 0.9 8.7 0.01 0.06 0.06 48 1018.3
20260905120225 74 17 2.6 10.4 0.01 0.06 0.06 50 1018.3
20260905115226 75 17 0.0 8.7 0.00 0.06 0.06 50 1018.3
20260905114227 74 267 1.7 11.3 0.00 0.06 0.06 52 1018.6
20260905113226 73 248 1.7 6.1 0.00 0.06 0.06 58 1018.3
20260905112439 72 264 3.5 9.6 0.00 0.06 0.06 63 1018.6
20260905111226 72 226 2.6 10.4 0.00 0.06 0.06 65 1018.6
20260905110227 70 211 0.9 6.1 0.00 0.06 0.06 71 1018.6
20260905105440 69 246 1.7 7.8 0.00 0.06 0.06 73 1019.0
20260905104225 69 206 2.6 9.6 0.00 0.06 0.06 72 1019.0
20260905103225 69 241 2.6 6.1 0.00 0.06 0.06 75 1019.0
20260905102441 67 246 2.6 8.7 0.00 0.06 0.06 77 1019.0
20260905101226 66 229 1.7 8.7 0.00 0.06 0.06 80 1019.0
20260905100226 66 202 3.5 5.2 0.00 0.06 0.06 82 1019.0
20260905095226 64 235 4.3 7.8 0.00 0.06 0.06 84 1019.0
20260905094439 64 209 2.6 7.8 0.00 0.06 0.06 86 1019.0
20260905093225 63 213 4.3 4.3 0.00 0.06 0.06 88 1019.3
20260905092226 62 233 2.6 4.3 0.01 0.06 0.06 89 1019.3
20260905091224 62 236 3.5 3.5 0.01 0.06 0.06 90 1019.3
20260905090226 61 238 0.0 1.7 0.01 0.06 0.06 90 1019.3
20260905085228 61 238 0.9 2.6 0.02 0.06 0.06 90 1019.3
20260905084224 60 238 2.6 6.1 0.02 0.06 0.06 89 1019.3
20260905083224 60 238 2.6 6.1 0.02 0.06 0.06 89 1019.3
20260905082225 60 226 0.0 3.5 0.02 0.06 0.06 89 1019.6
20260905081225 60 223 1.7 4.3 0.01 0.05 0.05 89 1019.0
20260905080225 60 208 2.6 7.0 0.01 0.05 0.05 88 1019.0
20260905075227 61 206 2.6 5.2 0.01 0.05 0.05 87 1018.6
20260905074225 61 201 1.7 3.5 0.01 0.04 0.04 86 1018.6
20260905073441 61 199 0.0 3.5 0.01 0.04 0.04 84 1019.0
20260905072227 61 200 0.0 5.2 0.01 0.04 0.04 83 1019.0
20260905071226 61 360 0.0 0.9 0.02 0.04 0.04 83 1019.0
20260905070225 61 360 0.0 3.5 0.02 0.04 0.04 84 1018.6
20260905065226 60 360 0.0 2.6 0.02 0.04 0.04 84 1018.6
20260905064225 60 221 0.0 2.6 0.02 0.03 0.03 86 1018.3
20260905063226 61 235 1.7 3.5 0.02 0.03 0.03 85 1019.3
20260905062225 61 12 0.0 0.9 0.03 0.03 0.03 84 1017.9
20260905061226 61 12 0.0 0.0 0.02 0.02 0.02 82 1018.3
20260905060227 62 12 0.0 0.0 0.02 0.02 0.02 79 1017.9
20260905055440 62 12 0.0 0.9 0.02 0.02 0.02 76 1018.3
20260905054227 63 12 0.0 4.3 0.02 0.02 0.02 70 1018.3
20260905053440 66 5 1.7 5.2 0.00 0.00 0.00 64 1018.3
20260905052227 66 15 1.7 3.5 0.00 0.00 0.00 58 1017.6
20260905051227 66 25 1.7 7.8 0.00 0.00 0.00 57 1017.3
20260905050225 67 17 0.9 4.3 0.00 0.00 0.00 56 1016.9
20260905045227 67 35 0.9 2.6 0.00 0.00 0.00 56 1016.6
20260905044439 67 38 0.9 2.6 0.00 0.00 0.00 55 1016.9
20260905043228 67 38 0.9 5.2 0.00 0.00 0.00 53 1016.6
20260905042225 68 51 1.7 11.3 0.00 0.00 0.00 55 1016.3
20260905041441 67 26 0.9 3.5 0.00 0.00 0.00 57 1015.9
20260905040225 67 37 0.0 0.9 0.00 0.00 0.00 61 1015.6
20260905035226 68 37 0.0 1.7 0.00 0.00 0.00 61 1015.6
20260905034439 68 43 0.9 4.3 0.00 0.00 0.00 60 1015.6
20260905033227 68 18 0.0 5.2 0.00 0.00 0.00 60 1015.6
20260905032225 68 355 1.7 5.2 0.00 0.00 0.00 59 1015.2
20260905031226 68 29 1.7 3.5 0.00 0.00 0.00 59 1014.6
20260905030227 69 32 2.6 3.5 0.00 0.00 0.00 59 1014.2
20260905025439 70 51 0.9 6.1 0.00 0.00 0.00 60 1014.2
20260905024225 71 349 0.0 7.8 0.00 0.00 0.00 61 1013.9
20260905023225 72 14 6.1 8.7 0.00 0.00 0.00 62 1013.5
20260905022226 74 22 0.9 9.6 0.00 0.00 0.00 59 1013.2
20260905021225 74 22 0.9 9.6 0.00 0.00 0.00 59 1013.2
20260905020223 75 226 0.0 0.0 0.00 0.00 0.00 58 1012.5
20260905015225 77 225 0.0 0.0 0.00 0.00 0.00 55 1012.2
20260905014225 78 246 0.0 0.0 0.00 0.00 0.00 49 1012.2
20260905013225 78 268 0.0 0.0 0.00 0.00 0.00 48 1012.2
20260905012227 78 236 0.0 0.0 0.00 0.00 0.00 48 1011.9
20260905011439 78 236 0.0 0.0 0.00 0.00 0.00 48 1011.9
20260905010225 78 236 0.0 0.0 0.00 0.00 0.00 48 1011.9
20260905005441 77 236 0.0 0.0 0.00 0.00 0.00 47 1011.9
20260905004227 77 236 0.0 0.0 0.00 0.00 0.00 48 1011.9
20260905003227 77 236 0.0 0.0 0.00 0.00 0.00 48 1011.5
20260905002225 77 236 0.0 0.0 0.00 0.00 0.00 48 1011.5
20260905001225 77 238 0.0 0.0 0.00 0.00 0.00 48 1011.5
20260905000226 76 240 0.0 0.0 0.00 0.00 0.00 48 1011.5
20260904235225 76 240 0.0 0.0 0.00 0.00 0.00 49 1011.5
20260904234226 76 239 0.0 0.0 0.00 0.00 0.00 49 1011.5
20260904233225 76 266 0.0 0.0 0.00 0.00 0.00 49 1011.5
20260904232227 76 266 0.0 0.0 0.00 0.00 0.00 49 1011.2
20260904231227 76 267 0.0 0.0 0.00 0.00 0.00 49 1011.2
20260904230227 76 267 0.0 0.0 0.00 0.00 0.00 49 1011.2
20260904225224 76 267 0.0 0.0 0.00 0.00 0.00 49 1011.2
20260904224225 76 267 0.0 0.0 0.00 0.00 0.00 49 1011.2
20260904223226 74 267 0.0 0.0 0.00 0.00 0.00 51 1011.2
20260904222227 74 267 0.0 0.0 0.00 0.00 0.00 50 1011.2
20260904221225 74 267 0.0 0.0 0.00 0.00 0.00 50 1011.2
20260904220225 74 267 0.0 0.0 0.00 0.00 0.00 50 1011.2
20260904215439 75 267 0.0 0.0 0.00 0.00 0.00 49 1011.2
20260904214225 75 267 0.0 0.0 0.00 0.00 0.00 48 1011.2
20260904213225 75 267 0.0 0.0 0.00 0.00 0.00 48 1011.2
20260904212223 74 267 0.0 0.0 0.00 0.00 0.00 50 1011.2